TimeEDT,TemperatureF,Dew PointF,Humidity,Sea Level PressureIn,VisibilityMPH,Wind Direction,Wind SpeedMPH,Gust SpeedMPH,PrecipitationIn,Events,Conditions,WindDirDegrees,DateUTC
12:53 AM,39.0,37.0,93,29.86,10.0,South,4.6,-,0.00,,Overcast,190,2013-10-20 04:53:00
1:53 AM,41.0,37.0,86,29.86,10.0,SW,5.8,-,0.02,Rain,Light Rain,220,2013-10-20 05:53:00
2:53 AM,37.0,35.1,93,29.86,10.0,SSW,5.8,-,0.00,,Scattered Clouds,200,2013-10-20 06:53:00
3:53 AM,37.0,36.0,96,29.85,10.0,SSW,3.5,-,N/A,,Overcast,210,2013-10-20 07:53:00
4:53 AM,37.9,36.0,93,29.86,10.0,SSW,4.6,-,N/A,,Overcast,200,2013-10-20 08:53:00
5:53 AM,37.0,35.1,93,29.85,10.0,SW,3.5,-,N/A,,Mostly Cloudy,230,2013-10-20 09:53:00
6:53 AM,37.9,35.1,89,29.86,10.0,SSW,3.5,-,N/A,,Clear,200,2013-10-20 10:53:00
7:53 AM,34.0,32.0,92,29.88,10.0,SSW,3.5,-,N/A,,Clear,200,2013-10-20 11:53:00
8:53 AM,35.1,34.0,96,29.90,9.0,SW,3.5,-,N/A,,Clear,230,2013-10-20 12:53:00
9:53 AM,44.1,39.0,82,29.92,10.0,WSW,9.2,-,N/A,,Mostly Cloudy,250,2013-10-20 13:53:00
10:53 AM,48.0,41.0,77,29.91,10.0,WSW,6.9,-,N/A,,Clear,240,2013-10-20 14:53:00
11:53 AM,50.0,41.0,71,29.92,10.0,WSW,9.2,-,N/A,,Mostly Cloudy,250,2013-10-20 15:53:00
12:53 PM,53.1,41.0,64,29.92,10.0,SW,10.4,-,N/A,,Scattered Clouds,220,2013-10-20 16:53:00
1:53 PM,57.0,39.9,53,29.90,10.0,West,10.4,-,N/A,,Overcast,280,2013-10-20 17:53:00
2:53 PM,55.9,37.0,49,29.89,10.0,West,13.8,19.6,N/A,,Clear,260,2013-10-20 18:53:00
3:53 PM,59.0,37.0,44,29.88,10.0,SW,11.5,-,N/A,,Clear,230,2013-10-20 19:53:00
4:53 PM,59.0,37.0,44,29.88,10.0,SW,9.2,-,N/A,,Mostly Cloudy,220,2013-10-20 20:53:00
5:53 PM,57.0,37.0,47,29.88,10.0,SSW,5.8,-,N/A,,Overcast,210,2013-10-20 21:53:00
6:53 PM,55.9,37.0,49,29.88,10.0,SSW,3.5,-,N/A,,Overcast,200,2013-10-20 22:53:00
7:53 PM,54.0,37.9,55,29.88,10.0,SSE,3.5,-,N/A,,Mostly Cloudy,160,2013-10-20 23:53:00
8:53 PM,53.1,39.0,59,29.87,10.0,South,5.8,-,N/A,,Mostly Cloudy,170,2013-10-21 00:53:00
9:53 PM,54.0,42.1,64,29.87,10.0,SSW,10.4,-,N/A,,Overcast,210,2013-10-21 01:53:00
10:53 PM,54.0,41.0,62,29.86,10.0,SSW,11.5,19.6,N/A,,Mostly Cloudy,200,2013-10-21 02:53:00
11:53 PM,54.0,41.0,62,29.85,10.0,SSW,10.4,20.7,N/A,,Mostly Cloudy,200,2013-10-21 03:53:00